User: anonymous   Login
Location: Poughquag
(41.6090°N, 73.6820°W)
Time: 10:15:22
(UTC-04:00)
Language:

Tiros 1 despin weight - Orbit

View from above orbital plane
View from above orbital plane
View from above satellite
View from above satellite

Ground track
Ground track

The orbit data is extracted from the following two-line orbital elements,

1   115U 60002D   20221.85499014 -.00000012 +00000-0 +25767-4 0  9997
2   115 048.1675 022.2508 0034396 120.0969 240.3361 14.83598105199597
Epoch (UTC): 08 August 2020 20:31:11
Eccentricity: 0.0034396
inclination: 48.1675°
perigee height: 594 km
apogee height: 642 km
right ascension of ascending node: 22.2508°
argument of perigee: 120.0969°
revolutions per day: 14.83598105
mean anomaly at epoch: 240.3361°
orbit number at epoch: 19959

The dashed part of the orbit path shows where the satellite is in the earth's shadow,  

DLR